Regional Weather Roundup
Issued by NWS Sterling, VA

Home | Current Version | Previous Version | Graphics & Text | Print | Product List | Glossary On
Versions: 1 2 3 4 5 6 7 8 9 10 11 12 13 14 15 16 17 18 19 20 21 22 23 24 25 26 27 28 29 30 31 32 33 34 35 36 37 38 39 40 41 42 43 44 45 46 47 48 49 50
000
ASUS41 KLWX 031410
RWRLWX

REGIONAL WEATHER ROUNDUP
NATIONAL WEATHER SERVICE BALTIMORE MD/WASHINGTON DC
900 AM EST TUE MAR 03 2015

Note: "FAIR" indicates few or no clouds below 12,000 feet
with no significant weather and/or obstructions to visibility.
 TC=TEMPERATURE CELSIUS

 * =Non NWS site. Station does not report precipitation (e.g. rain,
    snow, etc.), thunder, or fog.

DCZ001-MDZ009-015-VAZ040>042-051-053>054-031500-
WASHINGTON METRO

CITY           SKY/WX    TMP DP  RH WIND       PRES   REMARKS
WASHINGTON NAT CLOUDY    33  15  47 E8        30.45F WCI  26
DULLES         CLOUDY    30  14  51 SE6       30.43F
ANDREWS AFB    PTSUNNY   30  16  55 E8        30.42S WCI  22
FT BELVOIR     CLOUDY    31  14  49 VRB5      30.45F
QUANTICO       CLOUDY    32  16  51 E3        30.47S
COLLEGE PARK*  PTSUNNY   32  18  55 E5        30.44F
LEESBURG*      MOSUNNY   32  19  59 SE5       30.43S
GAITHERSBURG*  PTSUNNY   27  12  54 E5        30.44F

$$

MDZ006>007-011-014-031500-
BALTIMORE METRO

CITY           SKY/WX    TMP DP  RH WIND       PRES   REMARKS
BWI AIRPORT    CLOUDY    28  15  58 E9        30.44S WCI  19
MD SCIENCE CTR   N/A      1  32 100 MISG      30.47R
MARTIN STATE   PTSUNNY   28  16  59 E6        30.49R
ANNAPOLIS      CLOUDY    29  16  58 E7        30.47R
FORT MEADE*    CLOUDY    30  18  59 E6        30.46F

$$

MDZ012-015-019>023-031500-
MARYLAND EASTERN SHORE

CITY           SKY/WX    TMP DP  RH WIND       PRES   REMARKS
OCEAN CITY     PTSUNNY   31  20  63 NE7       30.46R
SALISBURY      CLOUDY    32  19  58 E6        30.47R
BAY BRIDGE AP*   N/A     30  14  51 E7        30.46S
CAMBRIDGE*     MOSUNNY   32  18  55 E5        30.46R
EASTON*        SUNNY     30  18  59 E12       30.49  WCI  21

$$

MDZ017>025-031500-
SOUTHERN MARYLAND

CITY           SKY/WX    TMP DP  RH WIND       PRES   REMARKS
PATUXENT RIVER CLOUDY    30  17  58 E8        30.45R WCI  22
ST INIGOES     NOT AVBL
LEONARDTOWN*   PTSUNNY   32  16  51 E9        30.45F WCI  24

$$

MDZ003>005-031500-
NORTH CENTRAL MARYLAND

CITY           SKY/WX    TMP DP  RH WIND       PRES   REMARKS
FREDERICK*     PTSUNNY   28  16  59 VRB3      30.46S
HAGERSTOWN APT CLOUDY    28  11  48 E7        30.37F
WESTMINSTER*   PTSUNNY   27  14  59 SE7       30.39F

$$

MDZ501>502-031500-
WESTERN MARYLAND

CITY           SKY/WX    TMP DP  RH WIND       PRES   REMARKS
OAKLAND*       CLOUDY    21  18  86 SE21      30.12F WCI   6
CUMBERLAND*    NOT AVBL

$$

VAZ025>031-031500-
SHENANDOAH VALLEY

CITY           SKY/WX    TMP DP  RH WIND       PRES   REMARKS
WINCHESTER*    PTSUNNY   32  12  43 SE7       30.38S
FRONT ROYAL*   FAIR      30  18  59 CALM      30.36F
LURAY*         CLOUDY    32  21  64 CALM      30.37S
NEW MARKET*    CLOUDY    29  18  64 CALM      30.36R
STAUNTON*      CLOUDY    32  18  55 S8        30.37S WCI  25
WAYNESBORO*    CLOUDY    30  16  54 SE7       30.34S

$$

WVZ021-048>050-054>055-031500-
EASTERN WEST VIRGINIA PANHANDLE

CITY           SKY/WX    TMP DP  RH WIND       PRES   REMARKS
MARTINSBURG    PTSUNNY   30  14  51 SE6       30.39F
PETERSBURG*    NOT AVBL

$$

VAZ036>039-050-031500-
CENTRAL FOOTHILLS

CITY           SKY/WX    TMP DP  RH WIND       PRES   REMARKS
CHARLOTTESVILL CLOUDY    31  16  54 S3        30.42R
CULPEPER*      CLOUDY    32  18  55 CALM      30.44S
ORANGE*        CLOUDY    32  19  59 CALM      30.45R
GORDONSVILLE*  CLOUDY    30  17  56 CALM      30.43R
WARRENTON*     CLOUDY    32  22  68 CALM      30.43S

$$

VAZ055>057-031500-
NORTH AND CENTRAL PIEDMONT

CITY           SKY/WX    TMP DP  RH WIND       PRES   REMARKS
FREDERICKSBRG* PTSUNNY   32  19  57 CALM      30.45S
STAFFORD*      PTSUNNY   31  13  46 E7        30.49S

$$

NCZ024-NYZ072-PAZ021-071-VAZ022-071-031500-
OTHER REGIONAL OBSERVATIONS

CITY           SKY/WX    TMP DP  RH WIND       PRES   REMARKS
NEW YORK CITY  PTSUNNY   27  10  49 CALM      30.47R
PHILADELPHIA   CLOUDY    28  11  48 E6        30.47F
PITTSBURGH     CLOUDY    24  15  68 E9        30.14F WCI  14
ROANOKE        CLOUDY    33  23  66 SE10      30.39S WCI  25
RICHMOND       CLOUDY    33  17  51 SE6       30.45R
RALEIGH        CLOUDY    37  20  50 E7G18     30.41R

$$

ANZ530>537-031500-
MARINE OBSERVATIONS

STATION/POSITION TIME  TEMP    WIND        PRES
                       AIR SEA DIR/SP/G
                 (UTC) (F)     (DEG/KT/KT) (MB)
THOMAS PT LIGHT  1400   29 31   80/  6/  7 1032.6R
BALT KEY BRIDGE  1300           70/  7/  8   N/A
COVE POINT       1300           70/  6/  8   N/A
LEWISETTA        1300      32     CALM       N/A
SOLOMONS ISLAND  1300      33                N/A

$$



USA.gov is the U.S. government's official web portal to all federal, state and local government web resources and services.